Location: Unspecified
(0.0000°N, 0.0000°E)
Time: 11:42:20
(UTC+00:00)

deb r/b Ablestar - Pass Details

Date: 16 April 2026
Orbit: 834 x 1371 km, 65.9° (Epoch: 10 May)

Event Time Altitude Azimuth Distance (km) Brightness Sun altitude
Exits shadow 03:14:01 - 160° (SSE) 3,790 ? -40.7°
Reaches altitude 10° 03:18:15 10° 134° (SE) 3,010 ? -39.7°
Maximum altitude 03:21:16 13° 109° (ESE) 2,873 ? -38.9°
Drops below altitude 10° 03:24:23 10° 84° (E) 3,170 ? -38.2°
Sets 03:29:17 0° 58° (ENE) 4,246 ? -37.0°
